TimePST,TemperatureF,Dew PointF,Humidity,Sea Level PressureIn,VisibilityMPH,Wind Direction,Wind SpeedMPH,Gust SpeedMPH,PrecipitationIn,Events,Conditions,WindDirDegrees,DateUTC
12:15 AM,48.2,42.8,82,29.55,10.0,West,11.5,16.1,0.01,,Overcast,280,2013-11-16 08:15:00
12:35 AM,48.2,42.8,82,29.54,10.0,West,4.6,-,0.02,,Overcast,280,2013-11-16 08:35:00
12:55 AM,46.4,42.8,87,29.55,5.0,North,-9999.0,-,0.12,,Overcast,0,2013-11-16 08:55:00
1:15 AM,46.4,39.2,76,29.56,10.0,North,6.9,-,N/A,,Mostly Cloudy,350,2013-11-16 09:15:00
1:35 AM,46.4,39.2,76,29.57,9.0,NW,8.1,-,0.03,,Overcast,310,2013-11-16 09:35:00
1:55 AM,46.4,39.2,76,29.57,10.0,North,-9999.0,-,0.03,,Mostly Cloudy,0,2013-11-16 09:55:00
2:15 AM,46.4,37.4,71,29.57,9.0,North,-9999.0,-,N/A,,Overcast,0,2013-11-16 10:15:00
2:35 AM,46.4,37.4,71,29.59,10.0,North,-9999.0,-,0.01,,Overcast,0,2013-11-16 10:35:00
2:55 AM,44.6,37.4,76,29.59,10.0,North,-9999.0,-,0.01,,Overcast,0,2013-11-16 10:55:00
3:15 AM,44.6,39.2,81,29.59,10.0,North,-9999.0,-,N/A,,Overcast,0,2013-11-16 11:15:00
3:35 AM,44.6,39.2,81,29.59,8.0,North,-9999.0,-,0.01,,Overcast,0,2013-11-16 11:35:00
3:55 AM,44.6,39.2,81,29.59,10.0,North,-9999.0,-,0.02,,Overcast,0,2013-11-16 11:55:00
4:15 AM,44.6,39.2,81,29.59,10.0,SSE,3.5,-,N/A,,Overcast,150,2013-11-16 12:15:00
4:35 AM,44.6,39.2,81,29.60,10.0,Calm,Calm,-,N/A,,Overcast,0,2013-11-16 12:35:00
4:55 AM,44.6,39.2,81,29.61,10.0,NNW,3.5,-,N/A,,Mostly Cloudy,330,2013-11-16 12:55:00
5:15 AM,44.6,37.4,76,29.62,10.0,NNW,6.9,-,N/A,,Overcast,330,2013-11-16 13:15:00
5:35 AM,44.6,35.6,71,29.62,10.0,North,-9999.0,-,0.02,,Overcast,0,2013-11-16 13:35:00
5:55 AM,42.8,37.4,81,29.62,9.0,North,-9999.0,-,0.04,,Overcast,0,2013-11-16 13:55:00
6:15 AM,42.8,37.4,81,29.63,10.0,North,-9999.0,-,N/A,,Mostly Cloudy,0,2013-11-16 14:15:00
6:35 AM,42.8,37.4,81,29.63,10.0,North,-9999.0,-,N/A,,Mostly Cloudy,0,2013-11-16 14:35:00
6:55 AM,42.8,37.4,81,29.64,10.0,North,-9999.0,-,0.01,,Mostly Cloudy,0,2013-11-16 14:55:00
7:15 AM,42.8,37.4,81,29.65,10.0,North,-9999.0,-,N/A,,Overcast,0,2013-11-16 15:15:00
7:35 AM,42.8,37.4,81,29.66,10.0,North,-9999.0,-,N/A,,Overcast,0,2013-11-16 15:35:00
7:55 AM,42.8,39.2,87,29.67,10.0,North,-9999.0,-,N/A,,Overcast,0,2013-11-16 15:55:00
8:15 AM,44.6,37.4,76,29.68,9.0,North,-9999.0,-,0.02,,Overcast,0,2013-11-16 16:15:00
8:35 AM,44.6,39.2,81,29.69,10.0,North,-9999.0,-,0.02,,Overcast,0,2013-11-16 16:35:00
8:55 AM,44.6,39.2,81,29.69,10.0,North,-9999.0,-,0.02,,Overcast,0,2013-11-16 16:55:00
9:15 AM,44.6,39.2,81,29.69,10.0,SSE,5.8,-,N/A,,Overcast,150,2013-11-16 17:15:00
9:35 AM,44.6,39.2,81,29.70,10.0,SSE,6.9,-,N/A,,Overcast,150,2013-11-16 17:35:00
9:55 AM,44.6,39.2,81,29.71,10.0,SSE,6.9,-,N/A,,Overcast,150,2013-11-16 17:55:00
10:15 AM,44.6,39.2,81,29.72,10.0,SSE,8.1,-,N/A,,Overcast,160,2013-11-16 18:15:00
10:35 AM,44.6,39.2,81,29.72,10.0,SE,6.9,-,0.01,,Mostly Cloudy,140,2013-11-16 18:35:00
10:55 AM,46.4,39.2,76,29.73,10.0,SE,5.8,-,0.01,,Overcast,140,2013-11-16 18:55:00
11:15 AM,46.4,39.2,76,29.73,10.0,South,6.9,-,N/A,,Overcast,170,2013-11-16 19:15:00
11:35 AM,46.4,39.2,76,29.73,10.0,SW,3.5,-,N/A,,Overcast,220,2013-11-16 19:35:00
11:55 AM,46.4,37.4,71,29.73,10.0,West,5.8,-,N/A,,Overcast,260,2013-11-16 19:55:00
12:15 PM,46.4,37.4,71,29.73,10.0,Calm,Calm,-,N/A,,Mostly Cloudy,0,2013-11-16 20:15:00
12:35 PM,46.4,37.4,71,29.73,10.0,SW,4.6,-,N/A,,Overcast,230,2013-11-16 20:35:00
12:55 PM,46.4,39.2,76,29.73,10.0,South,4.6,-,N/A,,Overcast,190,2013-11-16 20:55:00
1:15 PM,46.4,37.4,71,29.73,10.0,SW,3.5,-,N/A,,Overcast,230,2013-11-16 21:15:00
1:35 PM,46.4,39.2,76,29.73,10.0,South,4.6,-,N/A,,Mostly Cloudy,170,2013-11-16 21:35:00
1:55 PM,46.4,39.2,76,29.74,10.0,SSE,3.5,-,N/A,,Overcast,160,2013-11-16 21:55:00
2:15 PM,46.4,39.2,76,29.74,10.0,SE,6.9,-,N/A,,Overcast,140,2013-11-16 22:15:00
2:35 PM,46.4,41.0,81,29.74,10.0,North,-9999.0,-,N/A,,Overcast,0,2013-11-16 22:35:00
2:55 PM,46.4,41.0,81,29.75,10.0,North,-9999.0,-,N/A,,Overcast,0,2013-11-16 22:55:00
3:15 PM,46.4,39.2,76,29.75,9.0,West,5.8,-,N/A,,Overcast,270,2013-11-16 23:15:00
3:35 PM,46.4,39.2,76,29.76,10.0,North,-9999.0,-,N/A,,Overcast,0,2013-11-16 23:35:00
3:55 PM,46.4,39.2,76,29.76,10.0,South,3.5,-,N/A,,Overcast,180,2013-11-16 23:55:00
4:15 PM,46.4,39.2,76,29.76,10.0,SSE,5.8,-,N/A,,Overcast,160,2013-11-17 00:15:00
4:35 PM,46.4,39.2,76,29.78,7.0,Calm,Calm,-,N/A,,Overcast,0,2013-11-17 00:35:00
4:55 PM,46.4,37.4,71,29.78,10.0,SSE,5.8,-,N/A,,Mostly Cloudy,150,2013-11-17 00:55:00
5:15 PM,46.4,37.4,71,29.78,10.0,SE,4.6,-,N/A,,Overcast,140,2013-11-17 01:15:00
5:35 PM,46.4,39.2,76,29.78,10.0,SSE,6.9,-,N/A,,Overcast,150,2013-11-17 01:35:00
5:55 PM,46.4,37.4,71,29.79,10.0,South,3.5,-,N/A,,Overcast,170,2013-11-17 01:55:00
6:15 PM,46.4,37.4,71,29.79,10.0,South,4.6,-,N/A,,Overcast,170,2013-11-17 02:15:00
6:35 PM,46.4,37.4,71,29.81,10.0,SSE,4.6,-,N/A,,Overcast,160,2013-11-17 02:35:00
6:55 PM,44.6,39.2,81,29.81,10.0,SE,4.6,-,N/A,,Overcast,140,2013-11-17 02:55:00
7:15 PM,44.6,39.2,81,29.81,9.0,North,-9999.0,-,0.01,,Overcast,0,2013-11-17 03:15:00
7:35 PM,44.6,39.2,81,29.82,8.0,North,-9999.0,-,0.02,,Overcast,0,2013-11-17 03:35:00
7:55 PM,44.6,39.2,81,29.83,5.0,North,-9999.0,-,0.03,,Overcast,0,2013-11-17 03:55:00
8:15 PM,44.6,39.2,81,29.84,4.0,North,-9999.0,-,0.01,,Overcast,0,2013-11-17 04:15:00
8:35 PM,44.6,39.2,81,29.84,5.0,North,-9999.0,-,0.04,,Overcast,0,2013-11-17 04:35:00
8:55 PM,44.6,39.2,81,29.85,8.0,North,-9999.0,-,0.04,,Mostly Cloudy,0,2013-11-17 04:55:00
9:15 PM,44.6,39.2,81,29.85,9.0,SE,3.5,-,0.01,,Overcast,140,2013-11-17 05:15:00
9:35 PM,44.6,39.2,81,29.85,7.0,SE,4.6,-,0.01,,Overcast,140,2013-11-17 05:35:00
9:55 PM,44.6,39.2,81,29.86,10.0,SE,4.6,-,0.01,,Overcast,140,2013-11-17 05:55:00
10:15 PM,42.8,39.2,87,29.86,10.0,SE,5.8,-,N/A,,Overcast,140,2013-11-17 06:15:00
10:35 PM,44.6,39.2,81,29.86,10.0,SE,3.5,-,N/A,,Overcast,140,2013-11-17 06:35:00
10:55 PM,42.8,39.2,87,29.86,10.0,Calm,Calm,-,N/A,,Mostly Cloudy,0,2013-11-17 06:55:00
11:15 PM,42.8,39.2,87,29.87,10.0,Calm,Calm,-,N/A,,Mostly Cloudy,0,2013-11-17 07:15:00
11:35 PM,42.8,39.2,87,29.87,10.0,North,-9999.0,-,N/A,,Overcast,0,2013-11-17 07:35:00
11:55 PM,42.8,39.2,87,29.88,10.0,North,-9999.0,-,N/A,,Overcast,0,2013-11-17 07:55:00